Meteo pe oră la Dzialy

Astăzi, 16 Ianuarie, Sâmbătă

Timp Temperatura Precipitaţii Vânt Presiune Umiditate
00:00 -9°C° 0.2 mm 2 m/s 721 mmHg 93%
01:00 -10°C° 0 mm 2 m/s 721 mmHg 94%
02:00 -9°C° 0 mm 1 m/s 721 mmHg 94%
03:00 -10°C° 0 mm 1 m/s 721 mmHg 94%
04:00 -10°C° 0 mm 1 m/s 721 mmHg 94%
05:00 -10°C° 0.1 mm 1 m/s 721 mmHg 95%
06:00 -12°C° 0.1 mm 2 m/s 721 mmHg 95%
07:00 -10°C° 0.1 mm 2 m/s 721 mmHg 95%
08:00 -9°C° 0.2 mm 2 m/s 721 mmHg 94%
09:00 -8°C° 0.2 mm 2 m/s 721 mmHg 93%
10:00 -8°C° 0.2 mm 3 m/s 721 mmHg 92%
11:00 -8°C° 0.2 mm 3 m/s 721 mmHg 90%
12:00 -8°C° 0.2 mm 4 m/s 720 mmHg 89%
13:00 -8°C° 0.2 mm 4 m/s 720 mmHg 88%
14:00 -8°C° 0.1 mm 4 m/s 720 mmHg 89%
15:00 -9°C° 0.1 mm 4 m/s 720 mmHg 91%
16:00 -9°C° 0.1 mm 3 m/s 719 mmHg 92%
17:00 -9°C° 0.2 mm 3 m/s 719 mmHg 93%
18:00 -9°C° 0.2 mm 3 m/s 719 mmHg 93%
19:00 -10°C° 0.2 mm 3 m/s 718 mmHg 94%
20:00 -9°C° 0.3 mm 3 m/s 718 mmHg 94%
21:00 -9°C° 0.3 mm 3 m/s 718 mmHg 93%
22:00 -10°C° 0.3 mm 4 m/s 718 mmHg 93%
23:00 -10°C° 0.3 mm 4 m/s 717 mmHg 93%

Mâine, 17 Ianuarie, Duminică

Timp Temperatura Precipitaţii Vânt Presiune Umiditate
00:00 -10°C° 0.3 mm 4 m/s 717 mmHg 93%
01:00 -10°C° 0.3 mm 4 m/s 717 mmHg 94%
02:00 -9°C° 0.4 mm 3 m/s 717 mmHg 94%
03:00 -10°C° 0.4 mm 3 m/s 717 mmHg 94%
04:00 -9°C° 0.4 mm 2 m/s 717 mmHg 95%
05:00 -10°C° 0.4 mm 2 m/s 717 mmHg 95%
06:00 -10°C° 0.4 mm 1 m/s 717 mmHg 96%
07:00 -11°C° 0.4 mm 1 m/s 717 mmHg 96%
08:00 -11°C° 0 mm 1 m/s 718 mmHg 95%
09:00 -11°C° 0 mm 1 m/s 718 mmHg 93%
10:00 -11°C° 0 mm 1 m/s 719 mmHg 92%
11:00 -10°C° 0 mm 1 m/s 719 mmHg 90%
12:00 -10°C° 0 mm 1 m/s 720 mmHg 88%
13:00 -9°C° 0 mm 1 m/s 720 mmHg 86%
14:00 -10°C° 0 mm 1 m/s 720 mmHg 89%
15:00 -11°C° 0 mm 1 m/s 720 mmHg 92%
16:00 -12°C° 0 mm 1 m/s 720 mmHg 95%
17:00 -13°C° 0 mm 1 m/s 720 mmHg 96%
18:00 -14°C° 0 mm 1 m/s 721 mmHg 96%
19:00 -15°C° 0 mm 0 m/s 721 mmHg 96%
20:00 -15°C° 0 mm 0 m/s 721 mmHg 96%
21:00 -16°C° 0 mm 0 m/s 721 mmHg 96%
22:00 -16°C° 0 mm 0 m/s 722 mmHg 96%
23:00 -16°C° 0 mm 1 m/s 722 mmHg 95%

Poimâine, 18 Ianuarie, Luni

Timp Temperatura Precipitaţii Vânt Presiune Umiditate
00:00 -15°C° 0 mm 1 m/s 722 mmHg 94%
01:00 -15°C° 0 mm 1 m/s 722 mmHg 93%
02:00 -15°C° 0 mm 1 m/s 722 mmHg 92%
03:00 -16°C° 0 mm 1 m/s 722 mmHg 92%
04:00 -16°C° 0 mm 1 m/s 722 mmHg 92%
05:00 -16°C° 0 mm 1 m/s 722 mmHg 91%
06:00 -16°C° 0 mm 1 m/s 722 mmHg 89%
07:00 -16°C° 0 mm 1 m/s 722 mmHg 88%
08:00 -14°C° 0 mm 1 m/s 723 mmHg 85%
09:00 -12°C° 0 mm 1 m/s 723 mmHg 82%
10:00 -10°C° 0 mm 0 m/s 723 mmHg 80%
11:00 -9°C° 0 mm 0 m/s 723 mmHg 78%
12:00 -7°C° 0 mm 0 m/s 723 mmHg 75%
13:00 -6°C° 0 mm 0 m/s 723 mmHg 73%
14:00 -7°C° 0 mm 0 m/s 723 mmHg 77%
15:00 -9°C° 0 mm 0 m/s 722 mmHg 82%
16:00 -10°C° 0 mm 0 m/s 722 mmHg 86%
17:00 -10°C° 0 mm 1 m/s 722 mmHg 85%
18:00 -10°C° 0 mm 1 m/s 722 mmHg 84%
19:00 -10°C° 0 mm 1 m/s 723 mmHg 83%
20:00 -10°C° 0 mm 1 m/s 723 mmHg 83%
21:00 -9°C° 0 mm 1 m/s 723 mmHg 83%
22:00 -9°C° 0 mm 1 m/s 723 mmHg 82%
23:00 -9°C° 0 mm 2 m/s 723 mmHg 86%

19 Ianuarie, Marţi

Timp Temperatura Precipitaţii Vânt Presiune Umiditate
00:00 -9°C° 0 mm 2 m/s 723 mmHg 89%
01:00 -8°C° 0 mm 2 m/s 723 mmHg 92%
02:00 -8°C° 0.1 mm 2 m/s 722 mmHg 93%
03:00 -7°C° 0.1 mm 2 m/s 722 mmHg 94%
04:00 -7°C° 0.1 mm 2 m/s 722 mmHg 95%
05:00 -6°C° 0.1 mm 2 m/s 722 mmHg 95%
06:00 -6°C° 0.1 mm 2 m/s 722 mmHg 95%
07:00 -6°C° 0.1 mm 2 m/s 722 mmHg 95%
08:00 -5°C° 0 mm 2 m/s 722 mmHg 93%
09:00 -4°C° 0 mm 2 m/s 722 mmHg 91%
10:00 -3°C° 0 mm 2 m/s 723 mmHg 90%
11:00 -3°C° 0 mm 2 m/s 722 mmHg 89%
12:00 -2°C° 0 mm 2 m/s 722 mmHg 88%
13:00 -1°C° 0 mm 2 m/s 722 mmHg 87%
14:00 -2°C° 0 mm 2 m/s 721 mmHg 88%
15:00 -3°C° 0 mm 2 m/s 721 mmHg 88%
16:00 -3°C° 0 mm 2 m/s 721 mmHg 88%
17:00 -3°C° 0 mm 2 m/s 721 mmHg 88%
18:00 -3°C° 0 mm 2 m/s 721 mmHg 88%
19:00 -3°C° 0 mm 2 m/s 720 mmHg 87%
20:00 -3°C° 0 mm 2 m/s 720 mmHg 87%
21:00 -3°C° 0 mm 2 m/s 720 mmHg 88%
22:00 -3°C° 0 mm 2 m/s 720 mmHg 88%
23:00 -4°C° 0 mm 3 m/s 719 mmHg 88%

20 Ianuarie, Miercuri

Timp Temperatura Precipitaţii Vânt Presiune Umiditate
00:00 -4°C° 0 mm 3 m/s 719 mmHg 88%
01:00 -4°C° 0 mm 3 m/s 719 mmHg 88%
02:00 -4°C° 0 mm 3 m/s 718 mmHg 88%
03:00 -4°C° 0 mm 3 m/s 718 mmHg 89%
04:00 -4°C° 0 mm 3 m/s 718 mmHg 89%
05:00 -3°C° 0 mm 2 m/s 718 mmHg 89%
06:00 -3°C° 0 mm 2 m/s 718 mmHg 89%
07:00 -3°C° 0 mm 2 m/s 718 mmHg 89%
08:00 -2°C° 0 mm 2 m/s 718 mmHg 90%
09:00 -1°C° 0 mm 2 m/s 718 mmHg 91%
10:00 +1°C° 0 mm 2 m/s 719 mmHg 92%
11:00 +2°C° 0 mm 2 m/s 718 mmHg 94%
12:00 +2°C° 0 mm 2 m/s 718 mmHg 95%
13:00 +3°C° 0 mm 2 m/s 718 mmHg 96%
14:00 +2°C° 0 mm 2 m/s 718 mmHg 94%
15:00 +2°C° 0 mm 2 m/s 718 mmHg 91%
16:00 +1°C° 0 mm 2 m/s 717 mmHg 89%
17:00 -1°C° 0 mm 2 m/s 717 mmHg 87%
18:00 -2°C° 0 mm 2 m/s 717 mmHg 84%
19:00 -4°C° 0 mm 3 m/s 717 mmHg 82%
20:00 -4°C° 0 mm 3 m/s 717 mmHg 83%
21:00 -4°C° 0 mm 3 m/s 717 mmHg 83%
22:00 -5°C° 0 mm 3 m/s 716 mmHg 84%
23:00 -4°C° 0 mm 3 m/s 716 mmHg 85%

21 Ianuarie, Joi

Timp Temperatura Precipitaţii Vânt Presiune Umiditate
00:00 -3°C° 0 mm 2 m/s 716 mmHg 85%
01:00 -2°C° 0 mm 2 m/s 715 mmHg 86%
02:00 -2°C° 0 mm 2 m/s 715 mmHg 86%
03:00 -2°C° 0 mm 2 m/s 715 mmHg 86%
04:00 -1°C° 0 mm 2 m/s 714 mmHg 86%
05:00 -1°C° 0 mm 2 m/s 714 mmHg 86%
06:00 -1°C° 0 mm 2 m/s 713 mmHg 86%
07:00 -2°C° 0 mm 2 m/s 713 mmHg 86%
08:00 -1°C° 0 mm 2 m/s 713 mmHg 88%
09:00 +1°C° 0 mm 2 m/s 712 mmHg 91%
10:00 +2°C° 0 mm 2 m/s 712 mmHg 93%
11:00 +3°C° 0 mm 2 m/s 712 mmHg 93%
12:00 +3°C° 0 mm 3 m/s 712 mmHg 94%
13:00 +3°C° 0 mm 3 m/s 712 mmHg 95%
14:00 +3°C° 0 mm 3 m/s 713 mmHg 92%
15:00 +2°C° 0 mm 3 m/s 713 mmHg 90%
16:00 +2°C° 0 mm 3 m/s 713 mmHg 88%
17:00 +1°C° 0 mm 3 m/s 713 mmHg 89%
18:00 +2°C° 0 mm 2 m/s 714 mmHg 89%
19:00 +2°C° 0 mm 2 m/s 714 mmHg 90%
20:00 +1°C° 0 mm 2 m/s 715 mmHg 90%
21:00 +2°C° 0 mm 1 m/s 715 mmHg 90%
22:00 +2°C° 0 mm 1 m/s 715 mmHg 90%
23:00 +2°C° 0 mm 1 m/s 715 mmHg 90%
Arată mai mult

Formular de consimțământ

Meteoprog și furnizorii noștri de servicii pot stoca și accesa date personale, precum cookies, identificatori de dispozitiv sau alte tehnologii similare pe dispozitivul dumneavoastră și procesa astfel de date pentru a personaliza conținutul și reclamele, dar și pentru a oferi caracteristici de social media și pentru a analiza traficul.

  • Stocarea și/sau accesarea informațiilor pe dispozitivul dumneavoastră

    Cookies, identificatori de dispozitiv sau alte informații pot fi stocate sau accesate pe dispozitiv în scopurile indicate mai sus.

  • Reclame și conținut personalizat, evaluarea reclamelor și a conținutului, informații despre audiențe și dezvoltarea produselor

    Reclamele și conținutul pot fi personalizate pe baza unui profil. Pot fi adăugate date suplimentare pentru a personaliza mai bine reclamele și conținutul. Performanța reclamelor și conținutului poate fi măsurată. Pot fi obținute informații despre utilizatorii care au văzut reclamele și conținutul. Aceste date pot fi utilizate pentru a dezvolta sau îmbunătăți experiența utilizatorilor, sistemele și software-ul.

Dând clic pe ‘Sunt de acord’, permiteți utilizarea cookie-urilor menționate, a identificatorilor de dispozitiv, balizelor web sau altor tehnologii similare. Setările pot fi modificate din browser-ul dispozitivului dumneavoastră.

În anumite scopuri, interesele legitime pot prima asupra consimțământului. Puteți citi mai multe informații în acest sens în Politica privind Confidențialitatea Datelor și Cookie.